Regional Weather Roundup
Issued by NWS Little Rock, AR

Home | Current Version | Previous Version | Text Only | Print | Product List | Glossary On
Versions: 1 2 3 4 5 6 7 8 9 10 11 12 13 14 15 16 17 18 19 20 21 22 23 24 25 26 27 28 29 30 31 32
000
ASUS44 KLZK 290105
RWRLZK

WEATHER ROUNDUP FOR ARKANSAS
NATIONAL WEATHER SERVICE LITTLE ROCK AR
800 PM CDT WED SEP 28 2016

NOTE: "FAIR" INDICATES FEW OR NO CLOUDS BELOW 12,000 FEET WITH NO
SIGNIFICANT WEATHER AND/OR OBSTRUCTIONS TO VISIBILITY.

ARZ001-003-010-029-290200-
NORTHWEST ARKANSAS

CITY           SKY/WX    TMP DP  RH WIND       PRES   REMARKS
FAYETTEVILLE   CLEAR     65  47  52 N7        30.11R
FORT SMITH     CLEAR     74  40  29 N10       30.04R
HARRISON       CLEAR     63  47  55 N7        30.11R
BENTONVILLE    CLEAR     63  45  51 N10       30.13R
ROGERS         CLEAR     62  48  60 N7        30.14R
SILOAM SPGS    CLEAR     63  43  48 N7        30.13R
HIGHFILL       CLEAR     64  48  56 N13       30.12R
SPRINGDALE     CLEAR     64  46  52 N9        30.13R
$$

ARZ004-005-016-290200-
NORTH CENTRAL ARKANSAS

CITY           SKY/WX    TMP DP  RH WIND       PRES   REMARKS
BATESVILLE     CLEAR     70  45  40 NW3       30.05R
FLIPPIN        CLEAR     66  45  45 N8        30.07R
MTN HOME       CLEAR     63  47  55 VRB5      30.09R
$$

ARZ040-041-290200-
WEST CENTRAL ARKANSAS

CITY           SKY/WX    TMP DP  RH WIND       PRES   REMARKS
MENA           CLEAR    N/A N/A N/A NW6       30.03R
MOUNT IDA      CLEAR     71  60  68 CALM      29.99R
$$

ARZ009-017-025-026-028-290200-
NORTHEAST ARKANSAS

CITY           SKY/WX    TMP DP  RH WIND       PRES   REMARKS
CORNING          N/A     64  50  59 N8        30.06R
JONESBORO      CLEAR     69  47  45 N12       30.02R
NEWPORT        CLEAR     66  50  56 MISG      30.03R
WALNUT RIDGE   CLEAR     64  46  52 N10       30.04R
BLYTHEVILLE    CLEAR     66  49  54 N14G23    30.03R
$$

ARZ022-023-033-042-044-290200-
CENTRAL ARKANSAS

CITY           SKY/WX    TMP DP  RH WIND       PRES   REMARKS
LITTLE ROCK    PTCLDY    78  54  43 N9        29.98R
N LITTLE ROCK    N/A     74  55  51 N6        29.98R
JACKSONVILLE   MOCLDY    76  54  46 VRB6      29.99R
SEARCY         CLEAR     73  49  42 N8        30.02R
HOT SPRINGS    CLEAR     81  53  37 NE8       29.98R
RUSSELLVILLE   CLEAR     73  47  39 N9        30.02R
$$

ARZ036-290200-
EAST ARKANSAS

CITY           SKY/WX    TMP DP  RH WIND       PRES   REMARKS
WEST MEMPHIS   MOCLDY    74  46  36 N21G26    29.97R
$$

ARZ050-053-066-070-073-290200-
SOUTHWEST ARKANSAS

CITY           SKY/WX    TMP DP  RH WIND       PRES   REMARKS
ARKADELPHIA    FAIR      73  62  68 NW6       29.97R
TEXARKANA      CLEAR     77  58  51 SW7       29.98R
EL DORADO      CLEAR     67  62  84 CALM      29.98R
DE QUEEN       CLEAR     79  57  46 N5        29.97R
$$

ARZ056-057-069-290200-
SOUTHEAST ARKANSAS

CITY           SKY/WX    TMP DP  RH WIND       PRES   REMARKS
PINE BLUFF     CLEAR     76  60  57 NW6       29.96R
STUTTGART      CLEAR     72  54  53 N8        29.98R
MONTICELLO     CLEAR     76  58  53 W6        29.96R

$$






USA.gov is the U.S. government's official web portal to all federal, state and local government web resources and services.